Regional Weather Roundup
Issued by NWS Goodland, KS

Home | Current Version | Previous Version | Text Only | Print | Product List | Glossary Off
Versions: 1 2 3 4 5 6 7 8 9 10 11 12 13 14 15 16 17 18 19 20 21 22 23 24 25 26 27 28 29 30 31 32 33 34 35 36 37 38 39 40 41 42 43 44 45 46 47 48 49 50

000
ASUS43 KGLD 141408
RWRGLD

GOODLAND FORECAST AREA HOURLY WEATHER ROUNDUP
NATIONAL WEATHER SERVICE GOODLAND KS
800 AM MDT MON JUL 14 2014

...OFFICIAL OBSERVATIONS...

CITY           SKY/WX    TMP DP  RH WIND       PRES   REMARKS
GOODLAND KS    SUNNY     70  63  78 N14       30.19R
HILL CITY KS   SUNNY     76  62  62 N6        30.11R
IMPERIAL NEB   SUNNY     66  59  78 NE12      30.20R
MCCOOK NEB     MOSUNNY   68  61  78 E10       30.16R
AKRON CO       SUNNY     68  59  73 N13       30.26R
BURLINGTON CO  SUNNY     72  63  73 W12       30.21R
LIMON CO       SUNNY     70  60  70 NW13      30.29S
$$

...UNOFFICIAL OBSERVATIONS...

CITY           SKY/WX    TMP DP  RH WIND       PRES   REMARKS
COLBY KS       SUNNY     70  66  88 NW8       30.17S
GOVE KS          N/A     74  32  21 CALM        N/A
LENORA KS        N/A     70  32  24 MISG        N/A
SHARON SPRINGS   N/A     72  66  81 NW9         N/A
ST FRANCIS KS  SUNNY     68  61  77 N8        30.18R
WAKEENEY KS      N/A     73  62  68 MISG        N/A
TRENTON NEB      N/A     68  32  26 E13         N/A
KIT CARSON CO    N/A     74  64  70 N6          N/A
YUMA CO          N/A     68  62  80 NW13        N/A
$$



USA.gov is the U.S. government's official web portal to all federal, state and local government web resources and services.